Time,TemperatureF,DewpointF,PressureIn,WindDirection,WindDirectionDegrees,WindSpeedMPH,WindSpeedGustMPH,Humidity,HourlyPrecipIn,Conditions,Clouds,dailyrainin,SoftwareType,DateUTC
2013-11-12 00:03:00,23.0,20.0,-100.00,WSW,245,7.0,15.0,90,-99.99,,,-99.99,,2013-11-12 05:03:00,
2013-11-12 00:12:00,23.0,20.0,-100.00,WSW,245,7.0,15.0,90,-99.99,,,-99.99,,2013-11-12 05:12:00,
2013-11-12 00:23:00,22.0,20.0,-100.00,SW,220,7.0,13.0,90,-99.99,,,-99.99,,2013-11-12 05:23:00,
2013-11-12 00:34:00,22.0,20.0,-100.00,SW,220,7.0,13.0,90,-99.99,,,-99.99,,2013-11-12 05:34:00,
2013-11-12 00:43:00,22.0,20.0,-100.00,SW,220,7.0,13.0,90,-99.99,,,-99.99,,2013-11-12 05:43:00,
2013-11-12 00:53:00,21.0,19.0,-100.00,WSW,240,7.0,10.0,90,-99.99,,,-99.99,,2013-11-12 05:53:00,
2013-11-12 01:03:00,21.0,19.0,-100.00,WSW,240,7.0,10.0,90,-99.99,,,-99.99,,2013-11-12 06:03:00,
2013-11-12 01:13:00,21.0,19.0,-100.00,WSW,240,7.0,10.0,90,-99.99,,,-99.99,,2013-11-12 06:13:00,
2013-11-12 01:22:00,21.0,19.0,-100.00,SW,235,9.0,16.0,90,-99.99,,,-99.99,,2013-11-12 06:22:00,
2013-11-12 01:32:00,21.0,19.0,-100.00,SW,235,9.0,16.0,90,-99.99,,,-99.99,,2013-11-12 06:32:00,
2013-11-12 01:42:00,21.0,19.0,-100.00,SW,235,9.0,16.0,90,-99.99,,,-99.99,,2013-11-12 06:42:00,
2013-11-12 01:52:00,21.0,19.0,-100.00,SW,215,9.0,16.0,89,-99.99,,,-99.99,,2013-11-12 06:52:00,
2013-11-12 02:02:00,21.0,19.0,-100.00,SW,215,9.0,16.0,89,-99.99,,,-99.99,,2013-11-12 07:02:00,
2013-11-12 02:11:00,21.0,19.0,-100.00,SW,215,9.0,16.0,89,-99.99,,,-99.99,,2013-11-12 07:11:00,
2013-11-12 02:21:00,21.0,18.0,-100.00,SW,225,12.0,18.0,88,-99.99,,,-99.99,,2013-11-12 07:21:00,
2013-11-12 02:32:00,21.0,18.0,-100.00,SW,225,12.0,18.0,88,-99.99,,,-99.99,,2013-11-12 07:32:00,
2013-11-12 02:42:00,21.0,18.0,-100.00,SW,225,12.0,18.0,88,-99.99,,,-99.99,,2013-11-12 07:42:00,
2013-11-12 02:52:00,20.0,17.0,-100.00,WSW,245,6.0,11.0,87,-99.99,,,-99.99,,2013-11-12 07:52:00,
2013-11-12 03:02:00,20.0,17.0,-100.00,WSW,245,6.0,11.0,87,-99.99,,,-99.99,,2013-11-12 08:02:00,
2013-11-12 03:11:00,20.0,17.0,-100.00,WSW,245,6.0,11.0,87,-99.99,,,-99.99,,2013-11-12 08:11:00,
2013-11-12 03:21:00,20.0,17.0,-100.00,SW,215,10.0,17.0,88,-99.99,,,-99.99,,2013-11-12 08:21:00,
2013-11-12 03:32:00,20.0,17.0,-100.00,SW,215,10.0,17.0,88,-99.99,,,-99.99,,2013-11-12 08:32:00,
2013-11-12 03:42:00,20.0,17.0,-100.00,SW,215,10.0,17.0,88,-99.99,,,-99.99,,2013-11-12 08:42:00,
2013-11-12 03:52:00,20.0,17.0,-100.00,SW,235,9.0,17.0,87,-99.99,,,-99.99,,2013-11-12 08:52:00,
2013-11-12 04:02:00,20.0,17.0,-100.00,SW,235,9.0,17.0,87,-99.99,,,-99.99,,2013-11-12 09:02:00,
2013-11-12 04:12:00,20.0,17.0,-100.00,SW,235,9.0,17.0,87,-99.99,,,-99.99,,2013-11-12 09:12:00,
2013-11-12 04:21:00,19.0,16.0,-100.00,SW,220,9.0,15.0,86,-99.99,,,-99.99,,2013-11-12 09:21:00,
2013-11-12 04:33:00,19.0,16.0,-100.00,SW,220,9.0,15.0,86,-99.99,,,-99.99,,2013-11-12 09:33:00,
2013-11-12 04:42:00,19.0,16.0,-100.00,SW,220,9.0,15.0,86,-99.99,,,-99.99,,2013-11-12 09:42:00,
2013-11-12 04:53:00,19.0,16.0,-100.00,SW,235,9.0,16.0,87,-99.99,,,-99.99,,2013-11-12 09:53:00,
2013-11-12 05:03:00,19.0,16.0,-100.00,SW,235,9.0,16.0,87,-99.99,,,-99.99,,2013-11-12 10:03:00,
2013-11-12 05:12:00,19.0,16.0,-100.00,SW,235,9.0,16.0,87,-99.99,,,-99.99,,2013-11-12 10:12:00,
2013-11-12 05:23:00,19.0,15.0,-100.00,SW,225,9.0,16.0,85,-99.99,,,-99.99,,2013-11-12 10:23:00,
2013-11-12 05:32:00,19.0,15.0,-100.00,SW,225,9.0,16.0,85,-99.99,,,-99.99,,2013-11-12 10:32:00,
2013-11-12 05:42:00,19.0,15.0,-100.00,SW,225,9.0,16.0,85,-99.99,,,-99.99,,2013-11-12 10:42:00,
2013-11-12 05:53:00,18.0,15.0,-100.00,SW,220,7.0,11.0,85,-99.99,,,-99.99,,2013-11-12 10:53:00,
2013-11-12 06:02:00,18.0,15.0,-100.00,SW,220,7.0,11.0,85,-99.99,,,-99.99,,2013-11-12 11:02:00,
2013-11-12 06:12:00,18.0,15.0,-100.00,SW,220,7.0,11.0,85,-99.99,,,-99.99,,2013-11-12 11:12:00,
2013-11-12 06:22:00,18.0,14.0,-100.00,WSW,240,6.0,12.0,84,-99.99,,,-99.99,,2013-11-12 11:22:00,
2013-11-12 06:32:00,18.0,14.0,-100.00,WSW,240,6.0,12.0,84,-99.99,,,-99.99,,2013-11-12 11:32:00,
2013-11-12 06:42:00,18.0,14.0,-100.00,WSW,240,6.0,12.0,84,-99.99,,,-99.99,,2013-11-12 11:42:00,
2013-11-12 06:52:00,18.0,14.0,-100.00,SW,225,8.0,12.0,84,-99.99,,,-99.99,,2013-11-12 11:52:00,
2013-11-12 07:02:00,18.0,14.0,-100.00,SW,225,8.0,12.0,84,-99.99,,,-99.99,,2013-11-12 12:02:00,
2013-11-12 07:11:00,18.0,14.0,-100.00,SW,225,8.0,12.0,84,-99.99,,,-99.99,,2013-11-12 12:11:00,
2013-11-12 07:21:00,18.0,14.0,-100.00,SW,215,6.0,11.0,84,-99.99,,,-99.99,,2013-11-12 12:21:00,
2013-11-12 07:31:00,18.0,14.0,-100.00,SW,215,6.0,11.0,84,-99.99,,,-99.99,,2013-11-12 12:31:00,
2013-11-12 07:42:00,18.0,14.0,-100.00,SW,215,6.0,11.0,84,-99.99,,,-99.99,,2013-11-12 12:42:00,
2013-11-12 07:52:00,17.0,13.0,-100.00,SW,225,4.0,8.0,84,-99.99,,,-99.99,,2013-11-12 12:52:00,
2013-11-12 08:01:00,17.0,13.0,-100.00,SW,225,4.0,8.0,84,-99.99,,,-99.99,,2013-11-12 13:01:00,
2013-11-12 08:11:00,17.0,13.0,-100.00,SW,225,4.0,8.0,84,-99.99,,,-99.99,,2013-11-12 13:11:00,
2013-11-12 08:22:00,17.0,13.0,-100.00,WSW,245,5.0,9.0,85,-99.99,,,-99.99,,2013-11-12 13:22:00,
2013-11-12 08:32:00,17.0,13.0,-100.00,WSW,245,5.0,9.0,85,-99.99,,,-99.99,,2013-11-12 13:32:00,
2013-11-12 08:42:00,17.0,13.0,-100.00,WSW,245,5.0,9.0,85,-99.99,,,-99.99,,2013-11-12 13:42:00,
2013-11-12 08:52:00,16.0,12.0,-100.00,SW,230,6.0,12.0,85,-99.99,,,-99.99,,2013-11-12 13:52:00,
2013-11-12 09:02:00,16.0,12.0,-100.00,SW,230,6.0,12.0,85,-99.99,,,-99.99,,2013-11-12 14:02:00,
2013-11-12 09:11:00,16.0,12.0,-100.00,SW,230,6.0,12.0,85,-99.99,,,-99.99,,2013-11-12 14:11:00,
2013-11-12 09:21:00,16.0,13.0,-100.00,SW,215,6.0,12.0,86,-99.99,,,-99.99,,2013-11-12 14:21:00,
2013-11-12 09:32:00,16.0,13.0,-100.00,SW,215,6.0,12.0,86,-99.99,,,-99.99,,2013-11-12 14:32:00,
2013-11-12 09:42:00,16.0,13.0,-100.00,SW,215,6.0,12.0,86,-99.99,,,-99.99,,2013-11-12 14:42:00,
2013-11-12 09:52:00,16.0,12.0,-100.00,SW,220,3.0,6.0,86,-99.99,,,-99.99,,2013-11-12 14:52:00,
2013-11-12 10:02:00,16.0,12.0,-100.00,SW,220,3.0,6.0,86,-99.99,,,-99.99,,2013-11-12 15:02:00,
2013-11-12 10:11:00,16.0,12.0,-100.00,SW,220,3.0,6.0,86,-99.99,,,-99.99,,2013-11-12 15:11:00,
2013-11-12 10:21:00,15.0,12.0,-100.00,SSW,205,3.0,6.0,86,-99.99,,,-99.99,,2013-11-12 15:21:00,
2013-11-12 10:33:00,15.0,12.0,-100.00,SSW,205,3.0,6.0,86,-99.99,,,-99.99,,2013-11-12 15:33:00,
2013-11-12 10:43:00,15.0,12.0,-100.00,SSW,205,3.0,6.0,86,-99.99,,,-99.99,,2013-11-12 15:43:00,
2013-11-12 10:53:00,15.0,12.0,-100.00,SSW,210,6.0,12.0,87,-99.99,,,-99.99,,2013-11-12 15:53:00,
2013-11-12 11:03:00,15.0,12.0,-100.00,SSW,210,6.0,12.0,87,-99.99,,,-99.99,,2013-11-12 16:03:00,
2013-11-12 11:12:00,15.0,12.0,-100.00,SSW,210,6.0,12.0,87,-99.99,,,-99.99,,2013-11-12 16:12:00,
2013-11-12 11:23:00,15.0,12.0,-100.00,WSW,240,4.0,10.0,87,-99.99,,,-99.99,,2013-11-12 16:23:00,
2013-11-12 11:33:00,15.0,12.0,-100.00,WSW,240,4.0,10.0,87,-99.99,,,-99.99,,2013-11-12 16:33:00,
2013-11-12 11:42:00,15.0,12.0,-100.00,WSW,240,4.0,10.0,87,-99.99,,,-99.99,,2013-11-12 16:42:00,
2013-11-12 11:52:00,15.0,12.0,-100.00,WSW,240,7.0,13.0,86,-99.99,,,-99.99,,2013-11-12 16:52:00,
2013-11-12 12:02:00,15.0,12.0,-100.00,WSW,240,7.0,13.0,86,-99.99,,,-99.99,,2013-11-12 17:02:00,
2013-11-12 12:12:00,15.0,12.0,-100.00,WSW,240,7.0,13.0,86,-99.99,,,-99.99,,2013-11-12 17:12:00,
2013-11-12 12:22:00,15.0,12.0,-100.00,SW,235,4.0,9.0,86,-99.99,,,-99.99,,2013-11-12 17:22:00,
2013-11-12 12:33:00,15.0,12.0,-100.00,SW,235,4.0,9.0,86,-99.99,,,-99.99,,2013-11-12 17:33:00,
2013-11-12 12:42:00,15.0,12.0,-100.00,SW,235,4.0,9.0,86,-99.99,,,-99.99,,2013-11-12 17:42:00,
2013-11-12 12:52:00,14.0,11.0,-100.00,SW,215,4.0,7.0,85,-99.99,,,-99.99,,2013-11-12 17:52:00,
2013-11-12 13:01:00,14.0,11.0,-100.00,SW,215,4.0,7.0,85,-99.99,,,-99.99,,2013-11-12 18:01:00,
2013-11-12 13:12:00,14.0,11.0,-100.00,SW,215,4.0,7.0,85,-99.99,,,-99.99,,2013-11-12 18:12:00,
2013-11-12 13:22:00,14.0,11.0,-100.00,WSW,240,4.0,7.0,85,-99.99,,,-99.99,,2013-11-12 18:22:00,
2013-11-12 13:32:00,14.0,11.0,-100.00,WSW,240,4.0,7.0,85,-99.99,,,-99.99,,2013-11-12 18:32:00,
2013-11-12 13:42:00,14.0,11.0,-100.00,WSW,240,4.0,7.0,85,-99.99,,,-99.99,,2013-11-12 18:42:00,
2013-11-12 13:52:00,14.0,11.0,-100.00,SW,235,5.0,9.0,86,-99.99,,,-99.99,,2013-11-12 18:52:00,
2013-11-12 14:01:00,14.0,11.0,-100.00,SW,235,5.0,9.0,86,-99.99,,,-99.99,,2013-11-12 19:01:00,
2013-11-12 14:11:00,14.0,11.0,-100.00,SW,235,5.0,9.0,86,-99.99,,,-99.99,,2013-11-12 19:11:00,
2013-11-12 14:21:00,14.0,10.0,-100.00,SW,225,5.0,9.0,86,-99.99,,,-99.99,,2013-11-12 19:21:00,
2013-11-12 14:32:00,14.0,10.0,-100.00,SW,225,5.0,9.0,86,-99.99,,,-99.99,,2013-11-12 19:32:00,
2013-11-12 14:42:00,14.0,10.0,-100.00,SW,225,5.0,9.0,86,-99.99,,,-99.99,,2013-11-12 19:42:00,
2013-11-12 14:52:00,14.0,11.0,-100.00,SW,220,4.0,7.0,86,-99.99,,,-99.99,,2013-11-12 19:52:00,
2013-11-12 15:01:00,14.0,11.0,-100.00,SW,220,4.0,7.0,86,-99.99,,,-99.99,,2013-11-12 20:01:00,
2013-11-12 15:11:00,14.0,11.0,-100.00,SW,220,4.0,7.0,86,-99.99,,,-99.99,,2013-11-12 20:11:00,
2013-11-12 15:21:00,14.0,11.0,-100.00,SW,235,6.0,11.0,86,-99.99,,,-99.99,,2013-11-12 20:21:00,
2013-11-12 15:32:00,14.0,11.0,-100.00,SW,235,6.0,11.0,86,-99.99,,,-99.99,,2013-11-12 20:32:00,
2013-11-12 15:42:00,14.0,11.0,-100.00,SW,235,6.0,11.0,86,-99.99,,,-99.99,,2013-11-12 20:42:00,
2013-11-12 15:52:00,14.0,11.0,-100.00,SW,215,6.0,11.0,85,-99.99,,,-99.99,,2013-11-12 20:52:00,
2013-11-12 16:02:00,14.0,11.0,-100.00,SW,215,6.0,11.0,85,-99.99,,,-99.99,,2013-11-12 21:02:00,
2013-11-12 16:12:00,14.0,11.0,-100.00,SW,215,6.0,11.0,85,-99.99,,,-99.99,,2013-11-12 21:12:00,
2013-11-12 16:22:00,14.0,11.0,-100.00,SW,215,6.0,10.0,84,-99.99,,,-99.99,,2013-11-12 21:22:00,
2013-11-12 16:34:00,14.0,11.0,-100.00,SW,215,6.0,10.0,84,-99.99,,,-99.99,,2013-11-12 21:34:00,
2013-11-12 16:44:00,14.0,11.0,-100.00,SW,215,6.0,10.0,84,-99.99,,,-99.99,,2013-11-12 21:44:00,
2013-11-12 16:54:00,14.0,10.0,-100.00,SSW,205,6.0,8.0,83,-99.99,,,-99.99,,2013-11-12 21:54:00,
2013-11-12 17:04:00,14.0,10.0,-100.00,SSW,205,6.0,8.0,83,-99.99,,,-99.99,,2013-11-12 22:04:00,
2013-11-12 17:14:00,14.0,10.0,-100.00,SSW,205,6.0,8.0,83,-99.99,,,-99.99,,2013-11-12 22:14:00,
2013-11-12 17:24:00,15.0,11.0,-100.00,SW,220,6.0,11.0,83,-99.99,,,-99.99,,2013-11-12 22:24:00,
2013-11-12 17:33:00,15.0,11.0,-100.00,SW,220,6.0,11.0,83,-99.99,,,-99.99,,2013-11-12 22:33:00,
2013-11-12 17:43:00,15.0,11.0,-100.00,SW,220,6.0,11.0,83,-99.99,,,-99.99,,2013-11-12 22:43:00,
2013-11-12 17:54:00,22.0,16.0,-100.00,SW,235,6.0,13.0,78,-99.99,,,-99.99,,2013-11-12 22:54:00,
2013-11-12 18:03:00,22.0,16.0,-100.00,SW,235,6.0,13.0,78,-99.99,,,-99.99,,2013-11-12 23:03:00,
2013-11-12 18:12:00,22.0,16.0,-100.00,SW,235,6.0,13.0,78,-99.99,,,-99.99,,2013-11-12 23:12:00,
2013-11-12 18:23:00,22.0,14.0,-100.00,SW,220,6.0,9.0,69,-99.99,,,-99.99,,2013-11-12 23:23:00,
2013-11-12 18:33:00,22.0,14.0,-100.00,SW,220,6.0,9.0,69,-99.99,,,-99.99,,2013-11-12 23:33:00,
2013-11-12 18:42:00,22.0,14.0,-100.00,SW,220,6.0,9.0,69,-99.99,,,-99.99,,2013-11-12 23:42:00,
2013-11-12 18:53:00,22.0,13.0,-100.00,SW,220,6.0,10.0,67,-99.99,,,-99.99,,2013-11-12 23:53:00,
2013-11-12 19:02:00,22.0,13.0,-100.00,SW,220,6.0,10.0,67,-99.99,,,-99.99,,2013-11-13 00:02:00,
2013-11-12 19:11:00,22.0,13.0,-100.00,SW,220,6.0,10.0,67,-99.99,,,-99.99,,2013-11-13 00:11:00,
2013-11-12 19:22:00,21.0,12.0,-100.00,SW,225,5.0,8.0,66,-99.99,,,-99.99,,2013-11-13 00:22:00,
2013-11-12 19:32:00,21.0,12.0,-100.00,SW,225,5.0,8.0,66,-99.99,,,-99.99,,2013-11-13 00:32:00,
2013-11-12 19:42:00,21.0,12.0,-100.00,SW,225,5.0,8.0,66,-99.99,,,-99.99,,2013-11-13 00:42:00,
2013-11-12 19:52:00,18.0,10.0,-100.00,SW,230,2.0,7.0,70,-99.99,,,-99.99,,2013-11-13 00:52:00,
2013-11-12 20:01:00,18.0,10.0,-100.00,SW,230,2.0,7.0,70,-99.99,,,-99.99,,2013-11-13 01:01:00,
2013-11-12 20:11:00,18.0,10.0,-100.00,SW,230,2.0,7.0,70,-99.99,,,-99.99,,2013-11-13 01:11:00,
2013-11-12 20:22:00,17.0,10.0,-100.00,SW,230,2.0,4.0,75,-99.99,,,-99.99,,2013-11-13 01:22:00,
2013-11-12 20:32:00,17.0,10.0,-100.00,SW,230,2.0,4.0,75,-99.99,,,-99.99,,2013-11-13 01:32:00,
2013-11-12 20:42:00,17.0,10.0,-100.00,SW,230,2.0,4.0,75,-99.99,,,-99.99,,2013-11-13 01:42:00,
2013-11-12 20:52:00,15.0,9.0,-100.00,WNW,290,0.0,2.0,78,-99.99,,,-99.99,,2013-11-13 01:52:00,
2013-11-12 21:01:00,15.0,9.0,-100.00,WNW,290,0.0,2.0,78,-99.99,,,-99.99,,2013-11-13 02:01:00,
2013-11-12 21:11:00,15.0,9.0,-100.00,WNW,290,0.0,2.0,78,-99.99,,,-99.99,,2013-11-13 02:11:00,
2013-11-12 21:22:00,13.0,8.0,-100.00,SSE,160,0.0,1.0,81,-99.99,,,-99.99,,2013-11-13 02:22:00,
2013-11-12 21:32:00,13.0,8.0,-100.00,SSE,160,0.0,1.0,81,-99.99,,,-99.99,,2013-11-13 02:32:00,
2013-11-12 21:42:00,13.0,8.0,-100.00,SSE,160,0.0,1.0,81,-99.99,,,-99.99,,2013-11-13 02:42:00,
2013-11-12 21:52:00,12.0,8.0,-100.00,SSW,195,1.0,2.0,84,-99.99,,,-99.99,,2013-11-13 02:52:00,
2013-11-12 22:02:00,12.0,8.0,-100.00,SSW,195,1.0,2.0,84,-99.99,,,-99.99,,2013-11-13 03:02:00,
2013-11-12 22:11:00,12.0,8.0,-100.00,SSW,195,1.0,2.0,84,-99.99,,,-99.99,,2013-11-13 03:11:00,
2013-11-12 22:22:00,12.0,8.0,-100.00,South,175,1.0,2.0,86,-99.99,,,-99.99,,2013-11-13 03:22:00,
2013-11-12 22:34:00,12.0,8.0,-100.00,South,175,1.0,2.0,86,-99.99,,,-99.99,,2013-11-13 03:34:00,
2013-11-12 22:44:00,12.0,8.0,-100.00,South,175,1.0,2.0,86,-99.99,,,-99.99,,2013-11-13 03:44:00,
2013-11-12 22:54:00,11.0,8.0,-100.00,SSW,195,1.0,2.0,88,-99.99,,,-99.99,,2013-11-13 03:54:00,
2013-11-12 23:04:00,11.0,8.0,-100.00,SSW,195,1.0,2.0,88,-99.99,,,-99.99,,2013-11-13 04:04:00,
2013-11-12 23:14:00,11.0,8.0,-100.00,SSW,195,1.0,2.0,88,-99.99,,,-99.99,,2013-11-13 04:14:00,
2013-11-12 23:23:00,11.0,8.0,-100.00,SSW,195,0.0,1.0,88,-99.99,,,-99.99,,2013-11-13 04:23:00,
2013-11-12 23:34:00,11.0,8.0,-100.00,SSW,195,0.0,1.0,88,-99.99,,,-99.99,,2013-11-13 04:34:00,
2013-11-12 23:42:00,11.0,8.0,-100.00,SSW,195,0.0,1.0,88,-99.99,,,-99.99,,2013-11-13 04:42:00,
2013-11-12 23:53:00,11.0,8.0,-100.00,SE,125,0.0,2.0,89,-99.99,,,-99.99,,2013-11-13 04:53:00,